When you browse on this site, cookies collect data to enhance your experience and personalize the content and advertising you see.
Visit our Privacy Policy to learn more. By continuing to use the site, you agree to this use of cookies and data.

Hourly Weather Hanoi

Today, 7 July, Tuesday

Time Temperature Precipitation Wind Pressure Humidity
00:00 +30°C° 0 mm 4 mps 752 mmHg 80%
01:00 +30°C° 0 mm 3 mps 753 mmHg 82%
02:00 +30°C° 0 mm 3 mps 752 mmHg 83%
03:00 +30°C° 0 mm 3 mps 752 mmHg 84%
04:00 +30°C° 0 mm 3 mps 752 mmHg 85%
05:00 +30°C° 0 mm 3 mps 753 mmHg 83%
06:00 +31°C° 0 mm 3 mps 753 mmHg 81%
07:00 +32°C° 0 mm 4 mps 754 mmHg 81%
08:00 +34°C° 0 mm 4 mps 754 mmHg 75%
09:00 +35°C° 0 mm 4 mps 754 mmHg 69%
10:00 +36°C° 0 mm 4 mps 754 mmHg 64%
11:00 +38°C° 0 mm 4 mps 753 mmHg 58%
12:00 +40°C° 0 mm 4 mps 752 mmHg 52%
13:00 +41°C° 0 mm 4 mps 752 mmHg 47%
14:00 +41°C° 0 mm 4 mps 751 mmHg 47%
15:00 +41°C° 0 mm 5 mps 751 mmHg 48%
16:00 +41°C° 0 mm 5 mps 750 mmHg 49%
17:00 +39°C° 0 mm 5 mps 750 mmHg 54%
18:00 +36°C° 0 mm 5 mps 751 mmHg 60%
19:00 +34°C° 0 mm 5 mps 751 mmHg 66%
20:00 +34°C° 0.1 mm 4 mps 752 mmHg 69%
21:00 +33°C° 0.1 mm 4 mps 752 mmHg 73%
22:00 +32°C° 0.1 mm 4 mps 753 mmHg 77%
23:00 +32°C° 0 mm 4 mps 753 mmHg 79%

Tomorrow, 8 July, Wednesday

Time Temperature Precipitation Wind Pressure Humidity
00:00 +32°C° 0 mm 4 mps 752 mmHg 80%
01:00 +31°C° 0 mm 3 mps 752 mmHg 82%
02:00 +31°C° 0.1 mm 3 mps 752 mmHg 83%
03:00 +30°C° 0.1 mm 2 mps 752 mmHg 84%
04:00 +30°C° 0.1 mm 2 mps 752 mmHg 85%
05:00 +31°C° 0 mm 2 mps 752 mmHg 83%
06:00 +31°C° 0 mm 2 mps 752 mmHg 81%
07:00 +31°C° 0 mm 2 mps 752 mmHg 80%
08:00 +34°C° 0 mm 2 mps 752 mmHg 73%
09:00 +35°C° 0 mm 2 mps 752 mmHg 66%
10:00 +37°C° 0 mm 2 mps 752 mmHg 59%
11:00 +38°C° 0 mm 2 mps 751 mmHg 53%
12:00 +40°C° 0 mm 2 mps 750 mmHg 47%
13:00 +42°C° 0 mm 3 mps 750 mmHg 41%
14:00 +42°C° 0 mm 3 mps 749 mmHg 40%
15:00 +43°C° 0 mm 3 mps 748 mmHg 39%
16:00 +43°C° 0 mm 4 mps 748 mmHg 38%
17:00 +41°C° 0 mm 4 mps 748 mmHg 44%
18:00 +39°C° 0 mm 5 mps 748 mmHg 50%
19:00 +36°C° 0 mm 5 mps 748 mmHg 56%
20:00 +35°C° 0.1 mm 5 mps 749 mmHg 59%
21:00 +34°C° 0.1 mm 4 mps 749 mmHg 61%
22:00 +34°C° 0.1 mm 4 mps 750 mmHg 64%
23:00 +34°C° 0.1 mm 4 mps 750 mmHg 65%

Day after tomorrow, 9 July, Thursday

Time Temperature Precipitation Wind Pressure Humidity
00:00 +33°C° 0.1 mm 4 mps 749 mmHg 65%
01:00 +33°C° 0.1 mm 4 mps 749 mmHg 66%
02:00 +33°C° 0.2 mm 3 mps 749 mmHg 68%
03:00 +31°C° 0.2 mm 3 mps 748 mmHg 69%
04:00 +30°C° 0.2 mm 3 mps 748 mmHg 71%
05:00 +31°C° 0 mm 3 mps 748 mmHg 70%
06:00 +31°C° 0 mm 3 mps 749 mmHg 68%
07:00 +32°C° 0 mm 2 mps 749 mmHg 67%
08:00 +35°C° 0 mm 3 mps 749 mmHg 59%
09:00 +37°C° 0 mm 3 mps 749 mmHg 51%
10:00 +40°C° 0 mm 4 mps 749 mmHg 43%
11:00 +41°C° 0 mm 4 mps 748 mmHg 41%
12:00 +42°C° 0 mm 4 mps 747 mmHg 39%
13:00 +43°C° 0 mm 5 mps 747 mmHg 36%
14:00 +43°C° 0 mm 4 mps 746 mmHg 35%
15:00 +44°C° 0 mm 4 mps 746 mmHg 35%
16:00 +44°C° 0 mm 4 mps 745 mmHg 34%
17:00 +42°C° 0 mm 3 mps 745 mmHg 41%
18:00 +39°C° 0 mm 3 mps 746 mmHg 47%
19:00 +37°C° 0 mm 3 mps 746 mmHg 54%
20:00 +36°C° 0.6 mm 4 mps 747 mmHg 57%
21:00 +35°C° 0.6 mm 4 mps 748 mmHg 60%
22:00 +34°C° 0.6 mm 5 mps 748 mmHg 63%
23:00 +34°C° 0 mm 4 mps 748 mmHg 65%

10 July, Friday

Time Temperature Precipitation Wind Pressure Humidity
00:00 +33°C° 0 mm 4 mps 748 mmHg 67%
01:00 +33°C° 0 mm 3 mps 748 mmHg 69%
02:00 +33°C° 0 mm 3 mps 747 mmHg 69%
03:00 +33°C° 0 mm 3 mps 747 mmHg 69%
04:00 +31°C° 0 mm 3 mps 747 mmHg 69%
05:00 +33°C° 0 mm 3 mps 747 mmHg 68%
06:00 +33°C° 0 mm 3 mps 748 mmHg 68%
07:00 +32°C° 0 mm 2 mps 748 mmHg 67%
08:00 +35°C° 0 mm 3 mps 748 mmHg 62%
09:00 +36°C° 0 mm 4 mps 749 mmHg 56%
10:00 +37°C° 0 mm 4 mps 749 mmHg 50%
11:00 +40°C° 0 mm 4 mps 748 mmHg 45%
12:00 +42°C° 0 mm 4 mps 748 mmHg 40%
13:00 +43°C° 0 mm 4 mps 748 mmHg 35%
14:00 +43°C° 0 mm 4 mps 747 mmHg 35%
15:00 +43°C° 0 mm 4 mps 747 mmHg 35%
16:00 +43°C° 0 mm 4 mps 746 mmHg 35%
17:00 +42°C° 0.1 mm 3 mps 746 mmHg 40%
18:00 +39°C° 0.1 mm 2 mps 747 mmHg 45%
19:00 +37°C° 0.1 mm 2 mps 747 mmHg 51%
20:00 +36°C° 0.1 mm 2 mps 748 mmHg 52%
21:00 +36°C° 0.1 mm 3 mps 748 mmHg 54%
22:00 +35°C° 0.1 mm 4 mps 749 mmHg 55%
23:00 +35°C° 0 mm 4 mps 749 mmHg 56%

11 July, Saturday

Time Temperature Precipitation Wind Pressure Humidity
00:00 +34°C° 0 mm 4 mps 749 mmHg 57%
01:00 +34°C° 0 mm 4 mps 748 mmHg 59%
02:00 +34°C° 0 mm 4 mps 748 mmHg 59%
03:00 +33°C° 0 mm 4 mps 748 mmHg 59%
04:00 +33°C° 0 mm 4 mps 748 mmHg 60%
05:00 +34°C° 0 mm 4 mps 748 mmHg 58%
06:00 +34°C° 0 mm 4 mps 748 mmHg 57%
07:00 +34°C° 0 mm 4 mps 749 mmHg 56%
08:00 +36°C° 0 mm 5 mps 749 mmHg 50%
09:00 +39°C° 0 mm 5 mps 749 mmHg 44%
10:00 +40°C° 0 mm 6 mps 749 mmHg 38%
11:00 +41°C° 0 mm 6 mps 749 mmHg 36%
12:00 +42°C° 0 mm 6 mps 748 mmHg 34%
13:00 +44°C° 0 mm 6 mps 748 mmHg 32%
14:00 +43°C° 0 mm 5 mps 747 mmHg 31%
15:00 +45°C° 0 mm 5 mps 747 mmHg 30%
16:00 +45°C° 0 mm 5 mps 746 mmHg 29%
17:00 +42°C° 0 mm 4 mps 747 mmHg 36%
18:00 +40°C° 0 mm 4 mps 747 mmHg 42%
19:00 +37°C° 0 mm 3 mps 747 mmHg 48%
20:00 +36°C° 0 mm 3 mps 748 mmHg 52%
21:00 +36°C° 0 mm 3 mps 749 mmHg 56%
22:00 +35°C° 0 mm 3 mps 750 mmHg 59%
23:00 +35°C° 0 mm 3 mps 749 mmHg 59%

12 July, Sunday

Time Temperature Precipitation Wind Pressure Humidity
00:00 +34°C° 0 mm 3 mps 749 mmHg 60%
01:00 +34°C° 0 mm 3 mps 749 mmHg 60%
02:00 +34°C° 0 mm 4 mps 749 mmHg 58%
03:00 +33°C° 0 mm 4 mps 749 mmHg 57%
04:00 +33°C° 0 mm 4 mps 748 mmHg 56%
05:00 +33°C° 0 mm 4 mps 749 mmHg 56%
06:00 +33°C° 0 mm 4 mps 749 mmHg 56%
07:00 +33°C° 0 mm 4 mps 749 mmHg 56%
08:00 +35°C° 0 mm 4 mps 749 mmHg 51%
09:00 +36°C° 0 mm 5 mps 749 mmHg 47%
10:00 +39°C° 0 mm 5 mps 749 mmHg 43%
11:00 +40°C° 0 mm 5 mps 749 mmHg 40%
12:00 +41°C° 0 mm 5 mps 748 mmHg 37%
13:00 +42°C° 0 mm 5 mps 748 mmHg 34%
14:00 +43°C° 0 mm 4 mps 747 mmHg 32%
15:00 +44°C° 0 mm 4 mps 747 mmHg 30%
16:00 +45°C° 0 mm 4 mps 746 mmHg 28%
17:00 +43°C° 0 mm 3 mps 747 mmHg 34%
18:00 +40°C° 0 mm 3 mps 747 mmHg 40%
19:00 +37°C° 0 mm 3 mps 747 mmHg 47%
20:00 +37°C° 0 mm 3 mps 748 mmHg 49%
21:00 +36°C° 0 mm 3 mps 749 mmHg 51%
22:00 +35°C° 0 mm 4 mps 750 mmHg 53%
23:00 +35°C° 0 mm 3 mps 750 mmHg 54%
Show more